Wind_Speed
33 33 35 34 31 29 24 24 23 21 18 12 8 19 23 24 29 28 27 26 25 26
37 37 38 34 32 30 26 24 18 19 19 14 15 33 29 29 27 28 26 24 25 25
35 42 40 39 35 31 27 25 25 22 22 24 20 15 27 21 24 23 28 25 25 27
36 39 39 40 36 34 30 25 25 23 24 23 23 21 13 10 16 20 25 27 26 27
31 36 38 35 32 29 30 31 28 28 26 23 17 10 8 7 15 25 26 26 28 29
24 31 35 34 30 27 25 23 23 21 23 23 19 16 11 16 21 24 26 23 25 30
27 32 33 29 29 28 25 22 22 20 19 21 19 21 23 22 27 31 26 25 27 30
33 30 27 26 26 24 23 23 22 21 20 21 22 23 24 27 29 30 25 29 28 28
12 15 12 16 19 19 19 17 18 19 20 22 24 26 27 26 25 28 25 26 24 22
3 6 8 11 15 16 16 16 19 17 18 23 26 28 26 24 22 19 20 22 21 20
0 3 6 8 9 11 11 13 15 18 19 23 24 21 19 18 17 16 14 13 16 15
12 9 8 8 7 9 11 11 13 15 18 21 24 22 17 17 17 17 15 15 17 17
10 10 11 11 11 10 11 12 15 18 20 23 26 23 19 17 19 24 28 28 26 20
9 9 10 11 13 14 15 17 18 19 20 21 24 28 23 22 22 26 29 32 34 27
Wind_Direction
241 239 237 239 244 252 257 260 257 259 263 264 312 331 307 297 275 263 256 258 258 261
262 257 251 250 253 254 256 264 259 252 254 251 312 310 302 299 280 273 267 267 264 262
283 261 259 257 254 257 261 266 270 255 255 265 272 285 303 298 268 268 268 269 268 264
275 268 257 255 261 264 264 263 265 262 263 263 270 286 275 295 266 263 268 272 270 268
267 264 265 262 266 269 266 265 265 266 262 259 265 259 240 220 282 259 259 266 273 269
257 259 262 263 267 268 265 261 260 263 267 258 266 241 240 230 262 271 267 269 277 279
260 250 260 263 268 268 261 255 254 258 260 259 259 235 236 257 274 275 293 293 290 287
265 260 262 267 269 265 254 254 252 257 254 259 257 245 242 253 270 274 286 290 291 287
246 247 261 262 258 249 242 243 248 251 258 260 263 262 264 270 272 277 289 290 296 292
324 301 278 257 240 239 248 253 255 258 259 265 275 282 282 279 277 282 291 296 296 288
273 305 287 263 254 250 250 261 267 269 269 274 276 282 280 276 275 277 281 309 322 297
44 26 8 356 310 286 269 271 279 285 284 280 284 288 278 274 268 268 281 301 312 311
19 9 357 349 343 347 341 317 300 289 287 287 290 293 281 277 275 275 281 293 301 304
354 347 336 327 327 325 324 320 316 308 299 295 288 287 287 277 274 279 285 288 293 296
Height
832 829 828 827 828 830 832 832 835 835 836 837 838 839 838 836 837 834 835 834 836 836
832 831 828 829 828 826 828 830 830 830 828 828 829 829 829 830 829 831 831 830 830 830
825 825 825 826 821 821 824 826 825 824 823 823 822 818 817 819 822 825 825 825 825 825
824 820 820 820 817 816 821 822 821 820 818 817 816 815 811 813 816 818 818 819 819 819
818 813 811 812 811 812 814 816 817 816 814 814 813 810 808 807 814 809 810 811 812 812
807 809 807 807 807 809 810 812 813 811 809 810 810 809 807 805 805 804 807 806 806 805
801 802 801 803 803 803 806 807 808 808 806 806 807 807 807 805 801 803 802 802 801 801
794 797 797 798 798 800 802 803 805 804 802 803 803 803 804 804 803 801 797 799 799 797
791 792 792 794 796 796 798 799 799 798 798 798 798 798 800 801 800 799 793 794 792 793
790 790 793 793 793 794 795 796 795 794 794 793 792 791 792 794 793 791 790 790 787 787
795 794 793 792 791 792 792 791 790 790 789 789 788 788 789 789 788 788 788 787 786 783
792 791 791 791 790 792 791 788 786 784 785 784 783 784 785 785 785 784 783 783 784 782
795 794 793 792 791 791 789 787 785 782 781 780 777 778 779 781 780 778 777 779 779 779
795 794 793 791 789 787 785 783 781 779 778 776 775 773 774 776 776 774 773 772 771 773